www.pogodaiklimat.ru

Погода и климат >> Архив погоды >> Туркменистан >> Эсенгулы


АРХИВ ПОГОДЫ в Эсенгулы

Время (UTC), дата Ветер
(напр.,м/с)
 
Видим.   Явления Облачность Т
(С)
Тd
(С)
f
(%)
Тe
(С)
Тes
(С)
Комфортность P
(гПа)
Po
(гПа)
Тmin
(С)
Tmax
(С)
R
(мм)
R24
(мм)
S
(см)
00 9.06 ЮЗ 1 10 км ясно +25.4 +22.1 82 +33 +33 очень
душно
1015.3 1018.0
03 9.06 ЮЗ 3 10 км 6/6 600 м
[Cu hum]
+26.1 +21.8 77 +34 +34 очень
душно
1016.6 1019.3 +25.3
06 9.06 З 4 10 км 1/1 600 м
[Cu hum]
+28.0 +19.2 59 +34 +43 очень
душно
1016.8 1019.5 +25.3
09 9.06 З 5 10 км 3/3 600 м
[Cu hum]
+28.4 +20.9 64 +36 +43 очень
душно
1016.8 1019.5
12 9.06 З 5 10 км 4/4 600 м
[Cu hum]
+27.9 +21.7 69 +36 +39 очень
душно
1016.1 1018.8
15 9.06 З 4 10 км 3/3 600 м
[Cu hum]
+27.2 +22.0 73 +35 +35 очень
душно
1016.1 1018.8 +30.0
18 9.06 З 3 10 км 3/3 600 м
[Cu hum]
+25.9 +21.7 78 +33 +33 очень
душно
1016.6 1019.3 +30.0
21 9.06 З 2 10 км ясно +25.7 +22.4 82 +34 +34 очень
душно
1016.6 1019.3
00 10.06 З 2 10 км ясно +25.1 +22.3 84 +33 +33 очень
душно
1016.2 1018.9
03 10.06 З 2 10 км 4/4 600 м
[Cu hum]
+25.8 +22.4 82 +34 +36 очень
душно
1017.1 1019.8 +25.0
06 10.06 ЮЗ 2 10 км 4/4 600 м
[Cu hum]
+27.7 +22.5 73 +36 +46 очень
душно
1018.5 1021.2 +25.0
09 10.06 З 3 10 км 4/4 600 м
[Cu hum]
+30.3 +22.4 63 +40 +50 очень
душно
1018.2 1020.8
12 10.06 З 3 10 км 4/4 600 м
[Cb calv]
+30.2 +22.6 64 +40 +45 очень
душно
1017.3 1019.9
15 10.06 СЗ 2 10 км ясно +29.2 +22.6 68 +39 +39 очень
душно
1016.5 1019.2 +31.4
18 10.06 З 2 10 км ясно +27.6 +23.2 77 +37 +37 очень
душно
1016.8 1019.5 +31.4
21 10.06 З 1 10 км ясно +26.0 +23.6 87 +35 +35 очень
душно
1016.6 1019.3
00 11.06 СЗ 1 10 км ясно +21.8 +16.2 70 +26 +26 душно 1015.9 1018.6
03 11.06 С 1 10 км ясно +22.6 +9.0 42 +24 +27 комфорт 1015.9 1018.6 +20.4
06 11.06 ЮЗ 1 10 км ясно +29.5 +14.2 39 +31 +49 жарко 1015.3 1018.0 +20.4
09 11.06 ЮЗ 2 10 км ясно +32.2 +19.1 46 +38 +58 опасность
солнечного
удара
1014.2 1016.8
12 11.06 З 1 10 км ясно +34.4 +13.1 28 +35 +47 очень
жарко
1012.3 1014.9
15 11.06 СЗ 3 10 км ясно +31.0 +17.6 45 +35 +35 очень
душно
1011.3 1013.9 +35.4
18 11.06 С 2 10 км ясно +27.9 +18.6 57 +33 +33 очень
душно
1010.8 1013.4 +35.4
21 11.06 З 3 10 км ясно +27.1 +22.8 77 +36 +36 очень
душно
1010.8 1013.4
00 12.06 З 4 10 км ясно +26.6 +23.8 85 +37 +37 очень
душно
1011.2 1013.8
03 12.06 Ю 2 10 км ясно +25.4 +22.9 86 +34 +36 очень
душно
1010.7 1013.3 +25.2
06 12.06 З 2 10 км ясно +29.8 +20.3 57 +37 +52 опасность
солнечного
удара
1009.6 1012.2 +25.2
09 12.06 З 5 10 км 8/0
[Ac trans]
+30.8 +18.8 49 +36 +42 очень
душно
1009.2 1011.8
12 12.06 З 3 10 км ясно +33.9 +13.1 28 +34 +43 очень
жарко
1008.5 1011.1
15 12.06 З 2 10 км ясно +30.5 +18.7 49 +35 +36 очень
душно
1008.0 1010.6 +34.0
18 12.06 З 3 10 км 4/0
[Ac trans]
+28.5 +20.3 61 +35 +35 очень
душно
1007.0 1009.6 +34.0
21 12.06 СЗ 3 10 км 8/8 600 м
[Cb calv]
+27.3 +22.8 76 +36 +36 очень
душно
1007.2 1009.8
00 13.06 ЮЗ 3 10 км 8/8 600 м
[Cb calv]
+26.3 +23.0 82 +35 +35 очень
душно
1006.1 1008.7
03 13.06 З 1 10 км 3/3 600 м
[Cu hum]
+26.7 +23.4 82 +36 +38 очень
душно
1006.1 1008.7 +25.3
06 13.06 З 2 10 км ясно +30.2 +21.8 61 +39 +54 опасность
солнечного
удара
1007.1 1009.7 +25.3
09 13.06 З 3 10 км ясно +30.9 +21.7 58 +39 +56 опасность
солнечного
удара
1007.6 1010.2
12 13.06 З 3 10 км ясно +30.1 +22.7 65 +40 +48 очень
душно
1007.2 1009.8
15 13.06 З 4 10 км ясно +28.9 +21.5 64 +37 +37 очень
душно
1008.0 1010.6 +31.0
18 13.06 З 3 10 км ясно +26.9 +23.0 79 +36 +36 очень
душно
1008.0 1010.6 +31.0
21 13.06 З 2 10 км ясно +25.6 +22.4 83 +34 +34 очень
душно
1007.6 1010.2
00 14.06 З 2 10 км ясно +24.7 +21.9 84 +32 +32 очень
душно
1007.6 1010.2
03 14.06 Ю 2 10 км ясно +24.4 +22.2 88 +32 +35 очень
душно
1008.4 1011.1 +22.7
06 14.06 З 5 10 км 3/0
[Ac trans]
+28.6 +22.6 70 +38 +44 очень
душно
1008.5 1011.1 +22.7
09 14.06 З 5 10 км 3/0
[Ac trans]
+30.0 +23.5 68 +41 +50 опасность
перегрева
1011.0 1013.6
12 14.06 З 5 10 км ясно +30.2 +21.6 60 +38 +44 очень
душно
1011.4 1014.0
15 14.06 З 3 10 км ясно +27.9 +23.5 77 +38 +38 очень
душно
1011.4 1014.0 +30.7
18 14.06 З 4 10 км ясно +26.7 +23.2 81 +36 +36 очень
душно
1012.1 1014.7 +30.7
21 14.06 З 4 10 км ясно +26.3 +22.3 79 +34 +34 очень
душно
1012.1 1014.7
00 15.06 З 3 10 км ясно +25.7 +23.1 86 +34 +34 очень
душно
1012.1 1014.7
03 15.06 З 3 10 км ясно +26.4 +23.8 86 +36 +39 очень
душно
1012.5 1015.2 +25.6
06 15.06 З 2 10 км ясно +28.2 +22.8 73 +38 +53 опасность
солнечного
удара
1013.0 1015.7 +25.6
09 15.06 З 2 10 км ясно +30.8 +20.6 55 +38 +58 опасность
солнечного
удара
1012.6 1015.2
12 15.06 З 1 10 км ясно +30.7 +20.3 54 +37 +49 очень
душно
1011.4 1014.0
15 15.06 З 2 10 км ясно +29.4 +21.7 63 +37 +38 очень
душно
1010.9 1013.5 +31.0
18 15.06 З 3 10 км 6/6 600 м
[Cb calv]
+27.2 +23.1 78 +36 +36 очень
душно
1012.1 1014.7 +31.0
21 15.06 З 3 10 км 8/8 600 м
[Cb calv]
+26.6 +22.5 78 +35 +35 очень
душно
1012.1 1014.7

 

Местоположение метеостанции Эсенгулы (Балканский велаят, Туркменистан): широта 37.47 долгота 53.97 высота над уровнем моря -22 м.

В архиве по умолчанию представлена погода в Эсенгулы за последнюю неделю. Архивные данные за месяц целиком и за предыдущие месяцы, начиная с января 2011 года, Вы можете получить, выбрав интересующий диапазон дат из раскрывающегося списка и нажав кнопку "Ввод!".


*Определитесь, кто Вы:
робот инопланетянин человек

Внимание! Время в таблицах - всемирное. Для получения местного времени необходимо прибавить поправку, которая равна 5 ч.

Смотрите также архив погоды в соседних городах и на ближайших метеорологических станциях:

Погода в Гызылетреке (Балканский велаят, Туркменистан) (73 км)
Погода в Горгане (Иран) (74 км)
Погода в Бабольсере (Иран) (144 км)
Погода в Шахруде (Иран) (146 км)
Погода в Эскандар Кола (Иран) (153 км)
Погода в Мараве Таппе (Иран) (181 км)
Погода в Огрыде (Балканский велаят, Туркменистан) (197 км)
Погода в Семнане (Иран) (220 км)
Погода в Небит-Даге (Балканский велаят, Туркменистан) (228 км)
Погода в Гаррыгале (Балканский велаят, Туркменистан) (231 км)

Пояснения к столбцам:

Ветер - указаны скорость ветра в м/с - средняя за 10 мин, порывы в срок и между сроками (в фигурных скобках) и направление, откуда дует ветер: С - северный, СВ - северо-восточный, В - восточный, ЮВ - юго-восточный, Ю - южный, ЮЗ - юго-западный, З - западный, СЗ - северо-западный.
Видимость - горизонтальная дальность видимости в метрах или километрах. При видимости от 1 до 10 км при отсутствии осадков обычно наблюдается дымка, при ухудшении видимости до 1 км и менее - туман. В сухую погоду видимость может ухудшаться дымом, пылью или мглою.
Явления - указаны атмосферные явления, наблюдавшиеся в срок или в последний час перед сроком; фигурными скобками обозначены явления, наблюдавшиеся между сроками (за 1-3 часа до срока); квадратными скобками обозначены град или гололедные отложения с указанием их диаметра в мм.
Облачность - указаны через наклонную черту общая и нижняя облачность в баллах и высота нижней границы облаков в метрах; квадратными скобками обозначены формы облаков: Ci - перистые, Cs - перисто-слоистые, Cc - перисто-кучевые, Ac - высококучевые, As - высокослоистые, Sc - слоисто-кучевые, Ns - слоисто-дождевые, Cu - кучевые, Cb - кучево-дождевые. Подробнее классификацию облаков см. в Атласе облаков (PDF).
T - Температура воздуха - температура, измеренная на высоте 2 м над землей.
Td - Температура точки росы - температура, при понижении до которой содержащийся в воздухе водяной пар достигнет насыщения.
f - Относительная влажность воздуха - влажноcть воздуха, измеренная на высоте 2 м над землей.
Te - Эффективная температура - температура, которую ощущает одетый по сезону человек в тени. Характеристика душности погоды. При расчете учитывается влияние влажности воздуха и скорости ветра на теплоощущения человека.
Tes - Эффективная температура на солнце - температура, которую ощущает человек, с поправкой на солнечный нагрев. Характеристика знойности погоды. Зависит от высоты солнца над горизонтом, облачности и скорости ветра. Ночью, в пасмурную погоду, а также при ветре 12 м/с и более поправка равна нулю.
P - Атмосферное давление - приведенное к уровню моря атмосферное давление.
Po - Атмосферное давление - измеренное на уровне метеостанции атмосферное давление.
Tmin - Минимальная температура - минимум температуры воздуха на высоте 2 м над землей.
Tmax - Максимальная температура - максимум температуры воздуха на высоте 2 м над землей.
R - Количество осадков - Количество выпавших осадков за период времени, мм. При наведении курсора мыши на число - период времени, за который выпало указанное количество осадков.
R24 - Количество осадков - Количество выпавших осадков за 24 часа, мм.
S - Снежный покров - Высота снежного покрова, см. При наведении курсора мыши на число - состояние снежного покрова и степень покрытия местности в баллах.